Location: Unspecified
(0.0000°N, 0.0000°E)
Time: 14:02:48
(UTC+00:00)

ISS - Pass Details

Date: 10 April 2021
Orbit: 418 x 422 km, 51.6° (Epoch: 16 April)

Event Time Altitude Azimuth Distance (km) Brightness Sun altitude
Rises 19:44:38 0° 323° (NW) 2,344 0.7 -25.6°
Reaches altitude 10° 19:46:43 10° 322° (NW) 1,484 -0.4 -26.1°
Enters shadow 19:47:54 20° 320° (NW) 1,009 -1.4 -26.4°
